彩虹 19星 (RADUGA 19)

导读 | 豆包AI

RADUGA 19(“虹”19)是独联体(CIS)继承自苏联的“虹”系列地球同步轨道通信卫星,于1986年10月25日发射升空。作为苏联第一代“虹”通信卫星成员,它基于KAUR-3平台研制,主要承担东半球范围内军事通信、民用电视与电报电话传输业务,是苏联早期固定通信卫星体系的重要组成,为区域通信保障提供了空间支撑。

基本信息
目录编号:
17046
目录名称:
RADUGA 19
国际标识:
1986-082A
轨道中心:
EARTH
卫星名称:
彩虹 19星
卫星全名:
彩虹 19星 (RADUGA 19)
卫星状态:
在轨 (已飞行14385 天)
发射日期:
1986-10-25 UTC
国别 :
俄罗斯(独联体) (CIS)
星等 :
--
轨道信息
数据来源 国际轨道数据 AOE轨道数据
星历时间 2026-03-12T06:05:37+0800
2天前
查看轨道信息
2026-03-13T11:00:00+0800
22小时前
查看轨道信息
半长轴 42679.952km 42679.634km
偏心率 0.0008981 0.0009127
轨道倾角 11.300° 11.298°
近地点辐角 196.395° 196.272°
升交点赤经 325.989° 325.981°
平近点角 351.044° 58.113°
近地点 36263.484km 36262.543km
远地点 36340.146km 36340.451km
周期 1462.499分钟 1462.483分钟
每日圈数 0.984616 0.984627
详细信息
平衡模式:
三轴稳定
覆盖范围:
全球
运营商:
俄罗斯国家航天集团
运营商所在国:
俄罗斯
制造商(研发单位):
普里克拉德诺伊·梅哈尼基设计局
制造商所在国:
俄罗斯联邦
使用方式:
暂无
卫星简介
彩虹卫星(Raduga, Gran)是苏联用于军事和通信目的的一系列地球静止通信卫星。彩虹卫星旨在支持军事通信、Orbita地面电视网络,并在整个东半球(极地地区除外)提供电话和电报通信。该卫星已退役。
2D轨道图
3D轨道图
轨道高度分析图
轨道倾角分析图
轨道综合分析图
查看轨道综合分析图